Location: Agendoh
(31.0664°N, 8.9343°W)
Time: 08:43:09
(UTC+00:00)

Hubble Space Telescope - Visible Passes

Search period start: 26 June 2022 00:00
Search period end: 06 July 2022 00:00
Orbit: 532 x 536 km, 28.5° (Epoch: 25 June)

Date Brightness Start Highest point End Pass type
(mag) Time Alt. Az. Time Alt. Az. Time Alt. Az.
26 Jun 1.4 21:04:57 10° W 21:08:49 40° SSW 21:10:05 31° SSE visible
27 Jun 1.6 20:53:07 10° W 20:56:52 35° SSW 20:58:39 23° SSE visible
28 Jun 1.9 20:41:19 10° W 20:44:55 30° SSW 20:47:14 17° SSE visible
29 Jun 2.2 20:29:32 10° WSW 20:32:57 25° SSW 20:35:50 13° SSE visible
30 Jun 2.5 20:17:50 10° WSW 20:20:58 21° SSW 20:24:07 10° SSE visible
